Location: Toronto
(43.6672°N, 79.4170°W)
Time: 10:38:34
(UTC-04:00)

ISS - Visible Passes

Search period start: 28 July 2016 00:00
Search period end: 07 August 2016 00:00
Orbit: 401 x 404 km, 51.6° (Epoch: 28 July)

Date Brightness Start Highest point End Pass type
(mag) Time Alt. Az. Time Alt. Az. Time Alt. Az.
28 Jul -0.6 01:27:54 10° NW 01:34:59 - ENE 01:30:09 20° N visible
28 Jul -1.9 03:08:08 37° ENE 03:08:08 37° ENE 03:10:33 10° E visible
28 Jul -2.4 04:41:16 12° W 04:43:44 28° SW 04:46:34 10° SSE visible
28 Jul -2.9 21:20:34 10° SSW 21:23:39 41° SE 21:26:45 10° ENE visible
28 Jul -1.6 22:57:07 10° W 23:00:08 34° NNW 23:03:09 10° NE visible
29 Jul -0.6 00:34:45 10° NW 00:37:13 19° N 00:38:12 17° NNE visible
29 Jul -2.4 22:03:54 10° WSW 22:07:05 51° NNW 22:10:17 10° NE visible
29 Jul -0.7 23:41:29 10° WNW 23:44:03 21° N 23:46:36 10° NE visible
30 Jul -0.3 01:18:30 10° NW 01:19:20 15° NNW 01:19:20 15° NNW visible
30 Jul -0.9 22:48:09 10° WNW 22:50:53 24° NNW 22:53:37 10° NE visible
31 Jul -0.7 00:25:31 10° NW 00:27:59 21° N 00:27:59 21° N visible
31 Jul -1.4 21:54:48 10° W 21:57:46 31° NNW 22:00:44 10° NE visible
31 Jul -0.7 23:32:25 10° NW 23:34:53 19° N 23:36:40 13° NE visible
01 Aug -0.1 01:08:59 10° NW 01:09:15 12° NW 01:09:15 12° NW visible
01 Aug -0.7 22:39:10 10° WNW 22:41:42 20° N 22:44:13 10° NE visible
02 Aug -0.8 00:16:04 10° NW 00:17:57 22° NNW 00:17:57 22° NNW visible
02 Aug -0.9 21:45:50 10° WNW 21:48:31 23° NNW 21:51:12 10° NE visible
02 Aug -1.0 23:23:07 10° NW 23:25:43 21° N 23:26:40 19° NE visible
03 Aug -0.8 22:30:02 10° NW 22:32:31 20° N 22:35:00 10° NE visible
04 Aug -0.8 00:06:31 10° NW 00:07:59 22° NNW 00:07:59 22° NNW visible
04 Aug -0.8 21:36:49 10° NW 21:39:19 20° N 21:41:49 10° NE visible
04 Aug -1.5 23:13:38 10° NW 23:16:29 27° NNE 23:16:44 27° NNE visible
05 Aug -1.1 22:20:41 10° NW 22:23:19 22° N 22:25:31 12° ENE visible
05 Aug -0.7 23:56:56 10° NW 23:58:06 20° NW 23:58:06 20° NW visible
06 Aug -1.0 21:27:37 10° NW 21:30:07 20° N 21:32:37 10° NE visible
06 Aug -2.2 23:04:02 10° NW 23:06:53 40° N 23:06:53 40° N visible
